Time,TemperatureF,DewpointF,PressureIn,WindDirection,WindDirectionDegrees,WindSpeedMPH,WindSpeedGustMPH,Humidity,HourlyPrecipIn,Conditions,Clouds,dailyrainin,SoftwareType,DateUTC
2013-01-06 14:22:00,51.0,2.0,-100.00,West,262,3.0,11.0,11,-99.99,,,-99.99,,2013-01-06 21:22:00,
2013-01-06 14:33:00,51.0,2.0,-100.00,West,262,3.0,7.0,11,-99.99,,,-99.99,,2013-01-06 21:33:00,
2013-01-06 14:42:00,50.0,4.0,-100.00,SW,234,2.0,9.0,12,-99.99,,,-99.99,,2013-01-06 21:42:00,
2013-01-06 14:52:00,50.0,4.0,-100.00,SW,234,2.0,9.0,12,-99.99,,,-99.99,,2013-01-06 21:52:00,
2013-01-06 15:02:00,50.0,4.0,-100.00,SW,234,2.0,8.0,12,-99.99,,,-99.99,,2013-01-06 22:02:00,
2013-01-06 15:12:00,50.0,4.0,-100.00,SW,234,2.0,8.0,12,-99.99,,,-99.99,,2013-01-06 22:12:00,
2013-01-06 15:22:00,50.0,4.0,-100.00,SW,234,2.0,8.0,12,-99.99,,,-99.99,,2013-01-06 22:22:00,
2013-01-06 15:33:00,50.0,4.0,-100.00,SW,234,2.0,8.0,12,-99.99,,,-99.99,,2013-01-06 22:33:00,
2013-01-06 15:43:00,45.0,8.0,-100.00,SW,234,2.0,2.0,15,-99.99,,,-99.99,,2013-01-06 22:43:00,
2013-01-06 15:52:00,45.0,8.0,-100.00,SW,234,2.0,2.0,15,-99.99,,,-99.99,,2013-01-06 22:52:00,
2013-01-06 16:02:00,43.0,7.0,-100.00,SW,234,2.0,2.0,17,-99.99,,,-99.99,,2013-01-06 23:02:00,
2013-01-06 16:12:00,42.0,5.0,-100.00,SW,234,2.0,2.0,17,-99.99,,,-99.99,,2013-01-06 23:12:00,
2013-01-06 16:22:00,42.0,5.0,-100.00,SW,234,2.0,2.0,17,-99.99,,,-99.99,,2013-01-06 23:22:00,
2013-01-06 16:33:00,42.0,4.0,-100.00,SW,234,2.0,2.0,17,-99.99,,,-99.99,,2013-01-06 23:33:00,
2013-01-06 16:42:00,41.0,4.0,-100.00,SW,234,2.0,6.0,17,-99.99,,,-99.99,,2013-01-06 23:42:00,
2013-01-06 16:52:00,41.0,4.0,-100.00,SW,234,-999.0,6.0,17,-99.99,,,-99.99,,2013-01-06 23:52:00,
2013-01-06 17:02:00,41.0,4.0,-100.00,SW,234,-999.0,6.0,18,-99.99,,,-99.99,,2013-01-07 00:02:00,
2013-01-06 17:12:00,40.0,4.0,-100.00,SW,234,-999.0,4.0,18,-99.99,,,-99.99,,2013-01-07 00:12:00,
2013-01-06 17:23:00,40.0,4.0,-100.00,West,262,0.0,4.0,18,-99.99,,,-99.99,,2013-01-07 00:23:00,
2013-01-06 17:32:00,40.0,4.0,-100.00,West,262,0.0,9.0,19,-99.99,,,-99.99,,2013-01-07 00:32:00,
2013-01-06 17:42:00,40.0,5.0,-100.00,West,262,0.0,8.0,20,-99.99,,,-99.99,,2013-01-07 00:42:00,
2013-01-06 17:52:00,40.0,5.0,-100.00,WSW,245,3.0,8.0,20,-99.99,,,-99.99,,2013-01-07 00:52:00,
2013-01-06 18:02:00,40.0,5.0,-100.00,WSW,245,3.0,8.0,20,-99.99,,,-99.99,,2013-01-07 01:02:00,
2013-01-06 18:12:00,40.0,5.0,-100.00,WSW,245,3.0,10.0,20,-99.99,,,-99.99,,2013-01-07 01:12:00,
2013-01-06 18:22:00,40.0,5.0,-100.00,West,268,3.0,10.0,20,-99.99,,,-99.99,,2013-01-07 01:22:00,
2013-01-06 18:32:00,40.0,5.0,-100.00,West,268,3.0,8.0,20,-99.99,,,-99.99,,2013-01-07 01:32:00,
2013-01-06 18:42:00,41.0,6.0,-100.00,WSW,256,3.0,9.0,20,-99.99,,,-99.99,,2013-01-07 01:42:00,
2013-01-06 18:52:00,41.0,6.0,-100.00,WSW,256,3.0,9.0,20,-99.99,,,-99.99,,2013-01-07 01:52:00,
2013-01-06 19:02:00,40.0,5.0,-100.00,WSW,256,3.0,8.0,20,-99.99,,,-99.99,,2013-01-07 02:02:00,
2013-01-06 19:12:00,41.0,4.0,-100.00,West,262,2.0,4.0,19,-99.99,,,-99.99,,2013-01-07 02:12:00,
2013-01-06 19:22:00,41.0,4.0,-100.00,West,262,2.0,4.0,19,-99.99,,,-99.99,,2013-01-07 02:22:00,
2013-01-06 19:32:00,41.0,4.0,-100.00,West,262,2.0,11.0,19,-99.99,,,-99.99,,2013-01-07 02:32:00,
2013-01-06 19:42:00,40.0,7.0,-100.00,SSW,205,3.0,10.0,22,-99.99,,,-99.99,,2013-01-07 02:42:00,
2013-01-06 19:52:00,40.0,7.0,-100.00,SSW,205,3.0,10.0,22,-99.99,,,-99.99,,2013-01-07 02:52:00,
2013-01-06 20:02:00,39.0,8.0,-100.00,SSW,205,3.0,7.0,23,-99.99,,,-99.99,,2013-01-07 03:02:00,
2013-01-06 20:12:00,40.0,6.0,-100.00,West,262,2.0,9.0,22,-99.99,,,-99.99,,2013-01-07 03:12:00,
2013-01-06 20:22:00,40.0,6.0,-100.00,West,262,2.0,9.0,22,-99.99,,,-99.99,,2013-01-07 03:22:00,
2013-01-06 20:32:00,40.0,7.0,-100.00,SSW,211,4.0,10.0,22,-99.99,,,-99.99,,2013-01-07 03:32:00,
2013-01-06 20:42:00,40.0,8.0,-100.00,SSW,211,4.0,8.0,24,-99.99,,,-99.99,,2013-01-07 03:42:00,
2013-01-06 20:52:00,40.0,8.0,-100.00,SSW,211,4.0,8.0,24,-99.99,,,-99.99,,2013-01-07 03:52:00,
2013-01-06 21:02:00,41.0,6.0,-100.00,SW,217,3.0,9.0,22,-99.99,,,-99.99,,2013-01-07 04:02:00,
2013-01-06 21:12:00,40.0,10.0,-100.00,SW,217,3.0,12.0,25,-99.99,,,-99.99,,2013-01-07 04:12:00,
2013-01-06 21:22:00,40.0,10.0,-100.00,SW,217,3.0,12.0,25,-99.99,,,-99.99,,2013-01-07 04:22:00,
2013-01-06 21:32:00,39.0,10.0,-100.00,SW,217,3.0,7.0,26,-99.99,,,-99.99,,2013-01-07 04:32:00,
2013-01-06 21:42:00,38.0,11.0,-100.00,SW,217,3.0,5.0,30,-99.99,,,-99.99,,2013-01-07 04:42:00,
2013-01-06 21:52:00,38.0,11.0,-100.00,South,182,2.0,5.0,30,-99.99,,,-99.99,,2013-01-07 04:52:00,
2013-01-06 22:02:00,41.0,5.0,-100.00,South,182,2.0,8.0,22,-99.99,,,-99.99,,2013-01-07 05:02:00,
2013-01-06 22:12:00,40.0,12.0,-100.00,South,182,2.0,6.0,29,-99.99,,,-99.99,,2013-01-07 05:12:00,
2013-01-06 22:22:00,40.0,12.0,-100.00,South,182,2.0,6.0,29,-99.99,,,-99.99,,2013-01-07 05:22:00,
2013-01-06 22:32:00,38.0,11.0,-100.00,South,182,2.0,6.0,28,-99.99,,,-99.99,,2013-01-07 05:32:00,
2013-01-06 22:42:00,38.0,9.0,-100.00,South,182,2.0,6.0,28,-99.99,,,-99.99,,2013-01-07 05:42:00,
2013-01-06 22:52:00,38.0,9.0,-100.00,South,182,2.0,6.0,28,-99.99,,,-99.99,,2013-01-07 05:52:00,
2013-01-06 23:02:00,38.0,9.0,-100.00,South,182,2.0,6.0,27,-99.99,,,-99.99,,2013-01-07 06:02:00,
2013-01-06 23:12:00,37.0,8.0,-100.00,South,182,2.0,3.0,27,-99.99,,,-99.99,,2013-01-07 06:12:00,
2013-01-06 23:22:00,37.0,8.0,-100.00,South,182,2.0,3.0,27,-99.99,,,-99.99,,2013-01-07 06:22:00,
2013-01-06 23:32:00,38.0,7.0,-100.00,South,182,2.0,10.0,25,-99.99,,,-99.99,,2013-01-07 06:32:00,
2013-01-06 23:42:00,37.0,9.0,-100.00,South,182,2.0,2.0,28,-99.99,,,-99.99,,2013-01-07 06:42:00,
2013-01-06 23:52:00,37.0,9.0,-100.00,South,182,-999.0,2.0,28,-99.99,,,-99.99,,2013-01-07 06:52:00,